[Iaude] MPEC V79: 2023 VG2 [a=27.38,e=0.87,i=42.9,H=13.5]
    mpec at marsden.cfa.harvard.edu 
    mpec at marsden.cfa.harvard.edu
       
    Mon Nov  6 18:36:43 EST 2023
    
    
  
M.P.E.C. 2023-V79                              Issued 2023 November 6, 23:35 UT
     The Minor Planet Electronic Circulars contain information on unusual
         minor planets, routine data on comets and natural satellites,
         and occasional editorial announcements.  They are published
    on behalf of Division F of the International Astronomical Union by the
          Minor Planet Center, Smithsonian Astrophysical Observatory,
                          Cambridge, MA 02138, U.S.A.
			  
             Prepared using the Tamkin Foundation Computer Network
                              MPC at CFA.HARVARD.EDU
            URL https://www.minorplanetcenter.net/    ISSN 1523-6714
                                    2023 VG2                                    
Observations:
     K23V02G  C2023 10 31.58537109 18 42.880+65 35 33.53         20.21GVEV079F52
     K23V02G  C2023 10 31.59771609 18 44.236+65 35 36.92         20.18GVEV079F52
     K23V02G  C2023 10 31.61004609 18 45.578+65 35 40.42         20.21GVEV079F52
     K23V02G* C2023 11 01.56125609 20 29.970+65 40 02.07         19.76iXEV079F51
     K23V02G  C2023 11 01.57154709 20 31.067+65 40 05.10         19.83iXEV079F51
     K23V02G  C2023 11 01.58183709 20 32.189+65 40 08.12         19.85iXEV079F51
     K23V02G  C2023 11 01.58978809 20 33.021+65 40 10.33         19.89iXEV079F52
     K23V02G  C2023 11 01.59211709 20 33.279+65 40 10.95         20.01iXEV079F51
     K23V02G  C2023 11 01.61186709 20 35.404+65 40 16.64         19.84iXEV079F52
     K23V02G  C2023 11 01.62288809 20 36.541+65 40 19.77         19.91iXEV079F52
     K23V02G  C2023 11 01.64066609 20 38.467+65 40 24.69         19.98GVEV079F52
     K23V02G  C2023 11 01.64147809 20 38.554+65 40 24.93         19.81GVEV079F52
     K23V02G mC2023 11 03.46595209 23 55.374+65 48 53.96         19.71GVEV079I52
     K23V02G mC2023 11 03.47555909 23 56.404+65 48 56.45         19.89GVEV079I52
     K23V02G mC2023 11 03.48485209 23 57.296+65 48 59.40         19.54GVEV079I52
     K23V02G mC2023 11 03.49987609 23 59.014+65 49 03.40         19.34GVEV079I52
     K23V02G mC2023 11 04.99547309 26 36.933+65 56 08.26               VEV079N51
     K23V02G mC2023 11 05.00040909 26 37.406+65 56 09.54               VEV079N51
     K23V02G KC2023 11 06.08623309 28 30.38 +66 01 19.9          19.5 GUEV079L06
     K23V02G KC2023 11 06.10407709 28 32.22 +66 01 25.4          19.7 GUEV079L06
     K23V02G KC2023 11 06.12192109 28 34.07 +66 01 31.0          19.7 GUEV079L06
Observer details:
F51 Pan-STARRS 1, Haleakala.  Observers J. Bulger, T. Lowe, P. Minguez, A.
    Schultz, I. Smith.  Measurers K. Chambers, T. de Boer, J. Fairlamb, H.
    Gao, M. Huber, C.-C. Lin, E. Magnier, Y. Ramanjooloo, R. Wainscoat, R.
    Weryk.  1.8-m Ritchey-Chretien + CCD.
F52 Pan-STARRS 2, Haleakala.  Observers J. Bulger, T. Lowe, P. Minguez, A.
    Schultz, I. Smith.  Measurers K. Chambers, T. de Boer, J. Fairlamb, H.
    Gao, M. Huber, C.-C. Lin, E. Magnier, Y. Ramanjooloo, R. Wainscoat, R.
    Weryk.  1.8-m Ritchey-Chretien + CCD.
I52 Steward Observatory, Mt. Lemmon Station.  Observer D. Rankin.  Measurers
    E. C. Beshore, D. Fay, J. B. Fazekas, D. C. Fuls, A. R. Gibbs, A. D.
    Grauer, H. Groeller, J. K. Hogan, R. A. Kowalski, S. M. Larson, G. J.
    Leonard, D. Rankin, R. L. Seaman, F. C. Shelly, K. W. Wierzchos.  1.0-m
    prime focus + CCD.
L06 Sormano 2 Observatory, Bellagio Via Lattea.  Observer G. Ventre.  0.36m
    Schmidt Cassegrain + CCD.
N51 GROWTH India Telescope, IAO, Hanle.  Observers Y. Wagh, R. Kumar, R.
    Sharma, V. Swain, K. Angail, V. Bhalerao, G. C. Anupama, S. Barway.
    Measurer Y. Wagh.  0.70-m f/6.5 Corrected Dall-Kirkham + CCD.
Orbital elements:
2023 VG2                                                                        
Epoch 2023 Sept. 13.0 TT = JDT 2460200.5                Bell                    
M 358.46070              (2000.0)            P               Q                  
n   0.00687962     Peri.  125.41159     -0.63503040     -0.76961584             
a  27.3795601      Node     5.60967     +0.27247829     -0.30376423             
e   0.8735656      Incl.   42.90084     +0.72283606     -0.56162154             
P 143              H   13.58          G   0.15           U   8                  
Residuals in seconds of arc
231031 F52  0.1-  0.1+    231101 F51  0.0   0.0     231103 I52  0.4-  0.1+
231031 F52  0.0   0.0     231101 F52  0.1+  0.0     231103 I52  0.4+  0.2-
231031 F52  0.1+  0.0     231101 F52  0.2-  0.0     231104 N51  0.1+  0.3+
231101 F51  0.1+  0.0     231101 F52  0.1-  0.1-    231105 N51  0.1-  0.1+
231101 F51  0.0   0.0     231101 F52  0.1-  0.1-    231106 L06  0.1-  0.2-
231101 F51  0.1+  0.1+    231103 I52  0.1-  0.2+    231106 L06  0.0   0.0
231101 F52  0.1-  0.0     231103 I52  0.1+  0.1-    231106 L06  0.2+  0.3+
Ephemeris:
2023 VG2                 a,e,i = 27.38, 0.87, 43                 q = 3.4617
Date    TT    R. A. (2000) Decl.     Delta      r    Elong.  Phase     V
2023 10 07    08 28 31.1 +63 52 29   3.8339  3.8598    84.0    14.9    20.3
...
2023 10 22    09 00 14.5 +64 53 24   3.6407  3.8058    91.9    15.2    20.1
...
2023 10 30    09 15 46.2 +65 28 20   3.5416  3.7784    96.1    15.2    20.1
...
2023 11 05    09 26 37.2 +65 56 08   3.4696  3.7584    99.2    15.1    20.0
2023 11 06    09 28 21.2 +66 00 55   3.4579  3.7551    99.7    15.1    20.0
2023 11 07    09 30 03.8 +66 05 45   3.4462  3.7518   100.3    15.1    20.0
...
2023 11 13    09 39 48.5 +66 35 43   3.3776  3.7326   103.4    15.0    19.9
...
2023 11 21    09 51 15.7 +67 18 20   3.2907  3.7078   107.4    14.7    19.8
...
2023 12 06    10 06 54.3 +68 45 14   3.1448  3.6641   114.4    14.2    19.7
M. P. C. Staff               (C) Copyright 2023 MPC           M.P.E.C. 2023-V79
    
    
More information about the Iaude
mailing list